Location: Port-Aux-Quilles Astronomical Observatory
(47.9769°N, 69.9642°W)
Time: 18:31:20
(UTC-04:00)

N. Korean satellite - Visible Passes

Search period start: 17 October 2019 00:00
Search period end: 27 October 2019 00:00
Orbit: 455 x 508 km, 97.2° (Epoch: 16 October)

Date Brightness Start Highest point End Pass type
(mag) Time Alt. Az. Time Alt. Az. Time Alt. Az.
17 Oct 10.6 19:02:44 10° W 19:03:12 10° W 19:03:40 10° W visible
18 Oct 7.8 06:22:03 10° NNE 06:25:32 47° E 06:29:04 10° S visible
18 Oct 9.7 18:35:06 10° SW 18:37:40 20° W 18:40:16 10° NW visible
19 Oct 9.3 05:57:08 10° NE 06:00:08 24° E 06:03:09 10° SSE visible
20 Oct 10.2 05:32:51 10° ENE 05:34:38 13° E 05:36:26 10° ESE visible
21 Oct 10.2 18:53:43 10° WSW 18:55:18 13° W 18:56:53 10° WNW visible
22 Oct 8.3 06:14:17 10° NNE 06:17:42 38° E 06:21:09 10° SSE visible
22 Oct 9.3 18:26:55 10° SSW 18:29:46 24° W 18:32:39 10° NW visible
23 Oct 9.6 05:49:29 10° NE 05:52:16 20° E 05:55:04 10° SE visible
24 Oct 10.4 05:25:41 10° ENE 05:26:44 11° E 05:27:48 10° ESE visible
25 Oct 7.2 06:31:35 10° NNE 06:35:13 64° E 06:38:53 10° S visible
25 Oct 10.0 18:45:12 10° SW 18:47:21 15° W 18:49:31 10° NW visible
26 Oct 8.7 06:06:31 10° NNE 06:09:50 32° E 06:13:10 10° SSE visible
26 Oct 8.8 18:18:47 10° SSW 18:21:50 29° W 18:24:58 10° NNW visible
